Location: Gälforsberget
(66.6500°N, 22.4167°E)
Time: 21:34:35
(UTC+00:00)

Cosmos 1656 Rocket - Pass Details

Date: 11 April 2026
Orbit: 794 x 843 km, 71.1° (Epoch: 16 May)

Event Time Altitude Azimuth Distance (km) Brightness Sun altitude
Rises 19:56:27 0° 312° (NW) 3,310 8.9 -9.7°
Reaches altitude 10° 19:58:54 10° 307° (NW) 2,379 7.5 -9.9°
Maximum altitude 20:04:09 52° 233° (SW) 995 4.1 -10.2°
Enters shadow 20:08:55 13° 160° (SSE) 2,203 5.3 -10.5°
